Regional Weather Roundup
Issued by NWS Green Bay, WI

Home | Current Version | Previous Version | Text Only | Print | Product List | Glossary On
Versions: 1 2 3 4 5 6 7 8 9 10 11 12 13 14 15 16 17 18 19 20 21 22 23 24 25 26 27 28 29 30 31 32 33 34 35 36 37 38 39 40 41 42 43 44 45 46 47 48 49 50
000
ASUS43 KGRB 191200
RWRGRB

NORTH-CENTRAL AND NORTHEAST WISCONSIN REGIONAL WEATHER ROUNDUP
NATIONAL WEATHER SERVICE GREEN BAY WI
600 AM CST SUN FEB 19 2017

WIZ005-009-010>012-018-019-191300-
NORTH CENTRAL WISCONSIN

CITY           SKY/WX    TMP DP  RH WIND       PRES   REMARKS
IRONWOOD       PTCLDY    28  26  92 CALM      29.94R
MANITOWISH WTR NOT AVBL
ARBOR VITAE    NOT AVBL
EAGLE RIVER    NOT AVBL
LAND O LAKES   CLEAR     26  24  92 CALM      29.93R
RHINELANDER    CLEAR     31  28  89 CALM      29.93R
PHILLIPS       CLEAR     27  27 100 CALM      29.92R
ANTIGO         NOT AVBL
TOMAHAWK       NOT AVBL
MERRILL        NOT AVBL
$$

WIZ013-073-191300-
NORTHEAST WISCONSIN

CITY           SKY/WX    TMP DP  RH WIND       PRES   REMARKS
IRON MOUNTAIN  PTCLDY    33  25  72 W3        29.91R
MARINETTE      PTCLDY    40  28  62 CALM      29.93R
$$

WIZ017-030-035>037-045-191300-
CENTRAL WISCONSIN

CITY           SKY/WX    TMP DP  RH WIND       PRES   REMARKS
MEDFORD        NOT AVBL
WAUSAU         CLEAR     31  30  96 CALM      29.93R
MOSINEE        CLEAR     34  34 100 CALM      29.95R
MARSHFIELD     CLEAR     31  29  92 CALM      29.93R
WISC RAPIDS    CLEAR     27  27 100 CALM      29.96R
STEVENS POINT  NOT AVBL
WAUPACA        CLEAR     37  32  83 CALM      29.96R
SHAWANO        CLOUDY    38  32  77 SW3       29.94R
CLINTONVILLE   PTCLDY    36  30  80 W3        29.94R
WAUTOMA        CLEAR     29  26  89 CALM      29.96R
$$

WIZ038-039-048-051-191300-
FOX VALLEY

CITY           SKY/WX    TMP DP  RH WIND       PRES   REMARKS
NWS GREEN BAY  PTCLDY    34  32  92 SW3       29.95R
APPLETON       PTCLDY    36  28  75 W10       29.94R
OSHKOSH        CLEAR     38  30  73 W5        29.95R
FOND DU LAC    CLEAR     32  27  81 CALM      29.96R
$$

WIZ022-050-052-191300-
EAST CENTRAL WISCONSIN

CITY           SKY/WX    TMP DP  RH WIND       PRES   REMARKS
EPHRAIM        NOT AVBL
WASHINGTON ISL FAIR      31  28  88 CALM      29.92R
STURGEON BAY   CLOUDY    40  29  64 W5        29.93R
MANITOWOC      NOT AVBL
SHEBOYGAN      CLEAR     41  31  67 W7        29.95R
$$

LMZ563-521-522-541>543-191300-
LAKESHORE

STATION/POSITION TIME  TEMP    WIND        PRES    VSBY  WAVE
                       AIR SEA DIR/SP/G                  HT/PER
                 (UTC) (F)     (DEG/KT/KT) (MB)    (MI)  (FT/S)
SHEBOYGAN LKSHOR 1100   46     280/ 11/ 12 1013.2R
KEWAUNEE LKSHORE 1130   42     300/  6/  8 1012.9R
NORTHPORT PIER   1140   44     280/  6/ 10 1012.9R
SISTER BAY LKSHO 1135   38      30/  2/  6   N/A
CHAMBERS ISLAND  1140   34     190/  4/  4 1012.9R
MENOMINEE LKSHOR 1130   42     300/  2/  4 1012.3R
$$




USA.gov is the U.S. government's official web portal to all federal, state and local government web resources and services.